{"data":{"norad_id":50319,"epoch":"2026-05-25T02:25:52.864320Z","epoch_age_seconds":69757,"freshness":"FRESH","line1":"1 50319U 21128A   26145.10130630 -.00000175  00000+0  00000+0 0  9996","line2":"2 50319   0.0156 291.3693 0000042 207.3681 224.1899  1.00273345 16027","mean_motion":1.00273345,"eccentricity":4.2e-6,"inclination_deg":0.0156,"raan_deg":291.3693,"arg_perigee_deg":207.3681,"mean_anomaly_deg":224.1899,"bstar":0,"rev_number":1602,"period_min":1436.0745619885,"perigee_km":35785.980552193,"apogee_km":35786.334732268,"semimajor_km":42164.294642231,"source":"CELESTRAK","updated_at":"2026-05-25T13:38:14.105582Z"}}